[[{"header":{"parameterUnit":"m.s-1","parameterCategory":1,"la1":30.2991,"la2":30.254,"lo1":-89.0895,"lo2":-89.0444,"dy":0.0017,"dx":0.0017,"nx":28,"ny":28,"refTime":"2024-07-08T03:00:00:Z","depth":0,"parameterNumber":2,"parameterNumberName":"U-component_of_WINDS"},"data":[0,0,0,0,0,0,0,0,0,0,0,0,0,0,0,0,0,0,0,0,0,0,0,0,0,0,0,0,0,0,0,0,0,0,0,0,0,0,0,0,0,0,0,0,0,0,0,0,0,0,0,0,0,0,0,0,0,0,-1.5347,-1.5346,0,-1.5329,-1.5329,-1.5329,-1.5288,-1.5287,-1.5286,-1.5285,-1.5269,-1.5269,-1.527,0,0,0,0,0,0,0,0,0,0,0,0,0,-1.5345,-1.5345,-1.5347,-1.5346,-1.5346,-1.5329,-1.5329,-1.5329,-1.5288,-1.5287,-1.5286,-1.5285,-1.5269,-1.5269,-1.527,0,0,0,0,0,0,0,0,0,0,0,0,0,-1.5338,-1.5345,-1.5347,-1.5324,-1.5321,-1.533,-1.5329,-1.5329,-1.5288,-1.5287,-1.5286,-1.5284,-1.5269,-1.5269,-1.527,-1.5299,0,0,-1.5272,-1.5272,0,0,0,0,0,0,0,0,-1.5339,-1.5339,-1.5327,-1.5325,-1.5323,-1.5309,-1.5323,-1.5319,-1.5288,-1.5301,-1.5285,-1.5284,-1.5284,-1.5283,-1.5283,-1.5299,-1.5298,-1.5272,-1.5272,-1.5272,-1.5272,0,0,0,0,0,0,0,-1.5339,-1.5339,-1.534,-1.5327,-1.5324,-1.5314,-1.5312,-1.5322,-1.53,-1.53,-1.5297,-1.5295,-1.5282,-1.5282,-1.5282,-1.5298,-1.5272,-1.5272,-1.5272,-1.5273,-1.5337,-1.5338,0,0,0,0,0,0,-1.5343,-1.534,-1.534,-1.5339,-1.5328,-1.5316,-1.5313,-1.5315,-1.53,-1.5296,-1.5296,-1.5293,-1.5282,-1.5281,-1.5281,-1.5314,-1.5272,-1.5273,-1.5273,-1.5335,-1.5337,-1.5339,0,0,0,0,0,0,-1.5343,-1.5343,-1.5341,-1.5339,-1.5338,-1.5317,-1.532,-1.5315,-1.5315,-1.5297,-1.5293,-1.53,-1.5281,-1.528,-1.5295,-1.5313,-1.5273,-1.5273,-1.5334,-1.5336,-1.5338,-1.5381,0,0,0,0,0,0,-1.5343,-1.5344,-1.5354,-1.5339,-1.5338,-1.5355,-1.5321,-1.5316,-1.5316,-1.5312,-1.53,-1.5296,-1.528,-1.5294,-1.5296,-1.5313,-1.5274,-1.5332,-1.5335,-1.5337,-1.5378,-1.5385,-1.539,0,0,0,0,0,-1.5343,-1.5368,-1.5355,-1.5356,-1.5351,-1.5356,-1.5355,-1.5335,-1.5318,-1.5329,-1.5317,-1.5297,-1.5311,-1.5296,-1.5297,-1.5315,-1.5331,-1.5334,-1.5337,-1.5375,-1.5383,-1.539,0,0,0,0,0,0,-1.5386,-1.5365,-1.5351,-1.5371,-1.5366,-1.5349,-1.5362,-1.5345,-1.5344,-1.534,-1.5316,-1.5314,-1.5332,-1.5325,-1.5309,-1.5343,-1.5318,-1.5321,-1.5347,-1.5354,-1.536,-1.5361,-1.5274,0,0,0,0,0,-1.5398,-1.5404,-1.5385,-1.5405,-1.5403,-1.5383,-1.5385,-1.537,-1.5363,-1.5361,-1.535,-1.5345,-1.5348,-1.5351,-1.5353,-1.5377,-1.5374,-1.539,-1.5396,-1.5401,-1.5404,-1.5416,-1.5423,-1.5349,-1.5349,-1.5349,0,0,-1.5422,-1.5412,-1.5417,-1.5413,-1.5407,-1.5414,-1.5381,-1.539,-1.5395,-1.5362,-1.5375,-1.5367,-1.5359,-1.5379,-1.5387,-1.5374,-1.5424,-1.5405,-1.5409,-1.5409,-1.542,-1.5427,-1.5434,-1.5351,-1.535,-1.535,0,0,-1.547,-1.5463,-1.5478,-1.5473,-1.5464,-1.545,-1.5454,-1.544,-1.5433,-1.5446,-1.5421,-1.5427,-1.5433,-1.5429,-1.5427,-1.5473,-1.5455,-1.5475,-1.5506,-1.5518,-1.5524,-1.5529,-1.5545,-1.5551,-1.5478,-1.5478,-1.5478,0,-1.5502,-1.5511,-1.5488,-1.5498,-1.5497,-1.5468,-1.5483,-1.5479,-1.5471,-1.5472,-1.5457,-1.5464,-1.5457,-1.5475,-1.5486,-1.5486,-1.5489,-1.5476,-1.5525,-1.553,-1.5534,-1.5549,-1.5555,-1.5481,-1.548,-1.548,-1.548,0,-1.555,-1.5556,-1.557,-1.5563,-1.5563,-1.5576,-1.5556,-1.5559,-1.5544,-1.5533,-1.5546,-1.5536,-1.5536,-1.5539,-1.5525,-1.5555,-1.5547,-1.5529,-1.5503,-1.5544,-1.5558,-1.5563,-1.5484,-1.5483,-1.5482,-1.5482,0,0,-1.5625,-1.5604,-1.561,-1.5606,-1.5594,-1.5598,-1.561,-1.5609,-1.5612,-1.5608,-1.5617,-1.5623,-1.5606,-1.5604,-1.5589,-1.56,-1.5636,-1.558,-1.558,-1.5591,-1.5669,-1.5682,-1.5689,-1.5624,-1.5625,-1.5626,-1.5669,0,-1.5669,-1.5687,-1.5667,-1.5689,-1.5695,-1.5667,-1.5677,-1.567,-1.566,-1.5663,-1.5652,-1.5656,-1.5634,-1.5632,-1.5642,-1.563,-1.5652,-1.5627,-1.5632,-1.5633,-1.5635,-1.5697,-1.5711,-1.5752,-1.5675,-1.5676,-1.5676,0,-1.5724,-1.5722,-1.5744,-1.573,-1.5732,-1.5741,-1.5738,-1.5742,-1.5734,-1.5725,-1.5724,-1.5705,-1.5716,-1.5691,-1.5705,-1.5688,-1.5689,-1.5684,-1.5685,-1.5685,-1.5657,-1.5698,-1.5765,-1.5772,-1.5685,-1.5684,-1.5683,0,-1.5776,-1.5778,-1.5792,-1.579,-1.5774,-1.5781,-1.5775,-1.5765,-1.5766,-1.5764,-1.5764,-1.5763,-1.5763,-1.5763,-1.5745,-1.5728,-1.5761,-1.5734,-1.5754,-1.5755,-1.5762,-1.5762,-1.5831,-1.5764,-1.5764,-1.5763,-1.5763,0,-1.5828,-1.5843,-1.5815,-1.5824,-1.5839,-1.5816,-1.5833,-1.5824,-1.5816,-1.5822,-1.5798,-1.5805,-1.5781,-1.5785,-1.5771,-1.5784,-1.5784,-1.5778,-1.5774,-1.578,-1.5781,-1.578,-1.5777,-1.5765,-1.5765,-1.5764,-1.5764,0,-1.5889,-1.5871,-1.5884,-1.5867,-1.5863,-1.5876,-1.5862,-1.5869,-1.5857,-1.5865,-1.5866,-1.5847,-1.585,-1.5832,-1.5833,-1.5823,-1.5844,-1.5835,-1.5846,-1.5843,-1.5864,-1.5862,-1.5935,-1.5943,-1.5871,-1.5872,-1.5872,0,-1.5923,-1.5934,-1.5918,-1.592,-1.5915,-1.5919,-1.5919,-1.5897,-1.5899,-1.589,-1.5899,-1.59,-1.59,-1.5907,-1.5893,-1.5893,-1.5884,-1.591,-1.5884,-1.589,-1.5884,-1.5884,-1.5885,-1.5915,-1.5916,-1.5917,-1.5917,0,-1.5986,-1.5976,-1.5977,-1.5975,-1.5976,-1.5973,-1.5969,-1.5972,-1.5948,-1.5951,-1.5954,-1.5954,-1.5954,-1.5955,-1.5953,-1.5947,-1.5928,-1.5925,-1.593,-1.5936,-1.5942,-1.5939,-1.586,-1.5924,-1.5923,-1.5923,-1.5922,-1.5922,-1.6035,-1.6042,-1.6033,-1.6034,-1.6029,-1.6025,-1.6031,-1.6019,-1.6021,-1.6019,-1.6006,-1.6011,-1.6003,-1.5997,-1.5993,-1.5997,-1.5985,-1.5991,-1.5993,-1.5995,-1.5999,-1.5941,-1.5996,-1.5996,-1.5996,-1.5996,-1.5995,0,-1.6096,-1.6088,-1.609,-1.6084,-1.6086,-1.6067,-1.6062,-1.6064,-1.6069,-1.6063,-1.6063,-1.6066,-1.6067,-1.6054,-1.6053,-1.6059,-1.6051,-1.606,-1.6059,-1.6058,-1.601,-1.6005,-1.6067,-1.6067,-1.6067,-1.6066,-1.6066,-1.6066,-1.6128,-1.6141,-1.613,-1.6139,-1.6131,-1.6136,-1.6134,-1.6131,-1.6125,-1.613,-1.613,-1.6121,-1.6112,-1.6111,-1.6111,-1.6107,-1.6108,-1.612,-1.6113,-1.6068,-1.6061,-1.6055,-1.6051,-1.612,-1.612,-1.6161,-1.6161,-1.6162]},{"header":{"parameterUnit":"m.s-1","parameterCategory":1,"la1":30.2991,"la2":30.254,"lo1":-89.0895,"lo2":-89.0444,"dy":0.0017,"dx":0.0017,"nx":28,"ny":28,"refTime":"2024-07-08T03:00:00:Z","depth":0,"parameterNumber":3,"parameterNumberName":"V-component_of_WINDS"},"data":[0,0,0,0,0,0,0,0,0,0,0,0,0,0,0,0,0,0,0,0,0,0,0,0,0,0,0,0,0,0,0,0,0,0,0,0,0,0,0,0,0,0,0,0,0,0,0,0,0,0,0,0,0,0,0,0,0,0,5.0861,5.0861,0,5.0893,5.0893,5.0894,5.0815,5.0812,5.081,5.0807,5.0838,5.0841,5.0844,0,0,0,0,0,0,0,0,0,0,0,0,0,5.0727,5.073,5.0861,5.0861,5.0861,5.0893,5.0893,5.0894,5.0815,5.0812,5.0809,5.0806,5.0837,5.084,5.0844,0,0,0,0,0,0,0,0,0,0,0,0,0,5.0775,5.0731,5.0861,5.0826,5.0823,5.0893,5.0893,5.0894,5.0816,5.0812,5.0808,5.0805,5.0835,5.084,5.0845,5.0948,0,0,5.0859,5.0861,0,0,0,0,0,0,0,0,5.0772,5.078,5.0831,5.0829,5.0826,5.0846,5.0857,5.0912,5.0817,5.0818,5.0807,5.0803,5.0843,5.0847,5.0861,5.095,5.0951,5.0859,5.0862,5.0864,5.0865,0,0,0,0,0,0,0,5.0769,5.0778,5.0873,5.0831,5.0828,5.0808,5.081,5.0867,5.0851,5.0818,5.0812,5.0817,5.0841,5.0857,5.0861,5.0951,5.0859,5.0863,5.0866,5.0868,5.1124,5.1128,0,0,0,0,0,0,5.077,5.0776,5.0872,5.0874,5.0789,5.0813,5.0816,5.0843,5.085,5.0848,5.0821,5.0814,5.0851,5.0856,5.0862,5.0982,5.0864,5.0868,5.0871,5.112,5.1125,5.1129,0,0,0,0,0,0,5.0768,5.078,5.0871,5.0823,5.0833,5.0819,5.085,5.0846,5.0861,5.0852,5.0849,5.084,5.0848,5.0855,5.0927,5.0982,5.0871,5.0875,5.1115,5.1121,5.1127,5.1224,0,0,0,0,0,0,5.0764,5.0779,5.082,5.0825,5.0836,5.0937,5.0854,5.0849,5.087,5.0861,5.087,5.0867,5.0846,5.092,5.0932,5.0987,5.0879,5.111,5.1118,5.1125,5.1216,5.1233,5.1247,0,0,0,0,0,5.076,5.0846,5.0822,5.0834,5.0887,5.094,5.0946,5.092,5.0875,5.0914,5.0908,5.0867,5.0975,5.0928,5.094,5.0998,5.1106,5.1116,5.1124,5.1209,5.123,5.1247,0,0,0,0,0,0,5.0847,5.0846,5.082,5.091,5.0926,5.0927,5.0976,5.0943,5.0972,5.0962,5.0928,5.093,5.1008,5.101,5.0958,5.1097,5.1032,5.1044,5.1093,5.1112,5.1128,5.1125,5.0882,0,0,0,0,0,5.0877,5.0922,5.0918,5.0998,5.1007,5.099,5.1013,5.0991,5.1006,5.1012,5.1011,5.1026,5.1063,5.1088,5.1121,5.1216,5.1216,5.1261,5.1277,5.129,5.13,5.1348,5.1368,5.1158,5.1158,5.1158,0,0,5.0938,5.0943,5.0974,5.1015,5.1025,5.107,5.0996,5.1048,5.1081,5.1019,5.1087,5.1087,5.1101,5.1184,5.1221,5.1188,5.1358,5.1301,5.1312,5.1315,5.136,5.1379,5.1397,5.1164,5.1163,5.1162,0,0,5.1074,5.1083,5.115,5.1161,5.1177,5.1165,5.1181,5.1187,5.1184,5.1252,5.1205,5.1244,5.1309,5.132,5.1334,5.1473,5.1435,5.1485,5.1566,5.1613,5.163,5.1644,5.1692,5.171,5.1495,5.1496,5.1496,0,5.1148,5.1216,5.1188,5.1243,5.1261,5.1208,5.1274,5.1286,5.1312,5.1325,5.1289,5.1368,5.1374,5.1458,5.1492,5.1506,5.1522,5.1483,5.163,5.1644,5.1657,5.1702,5.1721,5.1501,5.1501,5.15,5.1499,0,5.1306,5.1354,5.1406,5.1432,5.1457,5.1517,5.1496,5.1524,5.1501,5.1492,5.156,5.1565,5.1598,5.1617,5.1594,5.1698,5.1677,5.1636,5.157,5.1683,5.1725,5.1742,5.151,5.1507,5.1506,5.1504,0,0,5.1498,5.1507,5.1526,5.1537,5.155,5.1585,5.1642,5.1675,5.1699,5.1718,5.1764,5.1819,5.1781,5.1797,5.1775,5.1818,5.1925,5.1771,5.1771,5.1798,5.2037,5.2067,5.2087,5.19,5.1904,5.1906,5.2035,0,5.163,5.1729,5.1704,5.1801,5.1844,5.1793,5.1843,5.1855,5.1849,5.1883,5.1875,5.1914,5.1862,5.1871,5.191,5.1904,5.1972,5.1894,5.1941,5.1943,5.1938,5.2109,5.2141,5.2263,5.2051,5.2054,5.2056,0,5.1798,5.1824,5.1926,5.193,5.1947,5.1992,5.2018,5.2053,5.2065,5.2057,5.2075,5.2044,5.2099,5.2034,5.2107,5.2055,5.2073,5.2072,5.2076,5.2078,5.2006,5.2115,5.2301,5.2319,5.2082,5.208,5.2078,0,5.1925,5.1985,5.2053,5.2064,5.2072,5.2104,5.2108,5.2117,5.2138,5.2161,5.2174,5.2203,5.2219,5.2242,5.2219,5.2174,5.2296,5.2229,5.229,5.229,5.2317,5.2315,5.2507,5.2331,5.2331,5.233,5.233,0,5.2075,5.2139,5.211,5.2152,5.2222,5.2192,5.2261,5.2259,5.2268,5.2307,5.2265,5.2303,5.2271,5.2306,5.2289,5.2351,5.2359,5.2353,5.2348,5.2356,5.2357,5.2367,5.2357,5.2335,5.2334,5.2333,5.2332,0,5.2229,5.2213,5.2283,5.2284,5.2285,5.2336,5.2336,5.2374,5.2364,5.2415,5.2425,5.2409,5.2448,5.2427,5.2467,5.2455,5.2536,5.252,5.2532,5.2527,5.2588,5.2582,5.2792,5.2817,5.2626,5.2628,5.263,0,5.2325,5.2373,5.2378,5.2402,5.2409,5.2448,5.2469,5.2441,5.2464,5.2481,5.2517,5.2552,5.2578,5.2641,5.2633,5.2663,5.2646,5.2717,5.265,5.2657,5.2645,5.2642,5.2646,5.273,5.2733,5.2734,5.2736,0,5.2497,5.2486,5.2518,5.2547,5.2573,5.2594,5.2612,5.2633,5.2606,5.2634,5.2672,5.2693,5.2733,5.2768,5.2793,5.2796,5.2761,5.2757,5.2772,5.2781,5.2786,5.2783,5.2568,5.2752,5.2751,5.2749,5.2749,5.2748,5.2623,5.2663,5.2673,5.2709,5.2719,5.2736,5.2772,5.2766,5.2798,5.2829,5.281,5.2856,5.2865,5.2896,5.2903,5.2937,5.2909,5.2931,5.2937,5.2942,5.295,5.2782,5.2942,5.2941,5.2941,5.2941,5.294,0,5.2791,5.2795,5.2829,5.2855,5.2883,5.2848,5.2866,5.2891,5.2932,5.2944,5.297,5.3014,5.3047,5.3041,5.3071,5.3099,5.3084,5.3108,5.3105,5.3106,5.2975,5.2958,5.312,5.312,5.312,5.312,5.312,5.312,5.2882,5.2947,5.2937,5.3005,5.3008,5.3052,5.3065,5.308,5.3089,5.314,5.3167,5.3163,5.3168,5.3197,5.3225,5.3222,5.3235,5.3264,5.3256,5.3133,5.3115,5.3098,5.3082,5.3268,5.3268,5.3384,5.3385,5.3386]}]]